7 * 24
多渠道服务支持
STARLINK-1909是美国太空探索技术公司星链星座中的一颗卫星,于2021年2月4日发射入轨,属于星链网络扩容任务的一部分。星链项目旨在构建全球卫星互联网星座,为全球偏远、欠发达地区及网络基础设施薄弱区域提供高速互联网接入服务,该卫星承担着组网通信的相关功能。
美国
(US)
| 数据来源 | 国际轨道数据 |
| 星历时间: | 2025-04-05T13:33:10+0800 轨道信息已过期343天 |
| 半长轴: | 6532.034km |
| 偏心率: | 0.0003185 |
| 轨道倾角: | 53.032° |
| 近地点辐角 | 218.943° |
| 升交点赤经 | 29.087° |
| 平近点角 | 281.125° |
| 近地点: | 151.818km |
| 远地点: | 155.98km |
| 周期: | 87.565分钟 |
| 每日圈数: | 16.444859 |